Tracking 17855 objects as of 25-September-2016
HD Live streaming from Space Station
objects crossing your sky now

UNHA 3 R/B

Track UNHA 3 R/B now!
10-day predictions


NORAD ID: 39027
Int'l Code: 2012-072B
Perigee: 487.7 km
Apogee: 573.6 km
Inclination: 97.3 °
Period: 95.1 minutes
Semi major axis: 6901 km
RCS: 1.274 m2 (large)
Launch date: December 12, 2012
Source: North Korea (NKOR)
Launch site: Yunsong, DPRK (YUN)

Note: This is a ROCKET BODY
Your satellite tracking list
Your tracking list is empty





NASA's NSSDC Master Catalog

Two Line Element Set (TLE):
1 39027U 12072B   16267.98792339  .00001212  00000-0  66820-4 0  9997
2 39027  97.2653 279.1992 0062240  81.8589 278.9697 15.14155216208679
Source of the keplerian elements: AFSPC

N2YO: 482